Time,TemperatureF,DewpointF,PressureIn,WindDirection,WindDirectionDegrees,WindSpeedMPH,WindSpeedGustMPH,Humidity,HourlyPrecipIn,Conditions,Clouds,dailyrainin,SolarRadiationWatts/m^2,SoftwareType,DateUTC
2013-04-01 00:02:00,65.0,58.0,-100.00,ENE,64,5.0,7.0,79,0.00,,,0.00,0.000000,,2013-04-01 05:02:00,
2013-04-01 00:10:00,62.0,57.0,-100.00,NNE,31,4.0,7.0,85,0.00,,,0.00,0.000000,,2013-04-01 05:10:00,
2013-04-01 00:33:00,62.0,57.0,-100.00,NNE,31,4.0,7.0,85,0.00,,,0.00,0.000000,,2013-04-01 05:33:00,
2013-04-01 00:43:00,62.0,57.0,-100.00,NNE,31,4.0,7.0,85,0.00,,,0.00,0.000000,,2013-04-01 05:43:00,
2013-04-01 00:53:00,62.0,57.0,-100.00,NNE,31,4.0,7.0,85,0.00,,,0.00,0.000000,,2013-04-01 05:53:00,
2013-04-01 01:02:00,62.0,57.0,-100.00,NNE,31,4.0,7.0,85,0.00,,,0.00,0.000000,,2013-04-01 06:02:00,
2013-04-01 01:10:00,60.0,58.0,-100.00,East,93,3.0,5.0,94,0.00,,,0.00,0.000000,,2013-04-01 06:10:00,
2013-04-01 01:34:00,60.0,58.0,-100.00,East,93,3.0,5.0,94,0.00,,,0.00,0.000000,,2013-04-01 06:34:00,
2013-04-01 01:43:00,60.0,58.0,-100.00,East,93,3.0,5.0,94,0.00,,,0.00,0.000000,,2013-04-01 06:43:00,
2013-04-01 01:53:00,60.0,58.0,-100.00,East,93,3.0,5.0,94,0.00,,,0.00,0.000000,,2013-04-01 06:53:00,
2013-04-01 02:02:00,60.0,58.0,-100.00,East,93,3.0,5.0,94,0.00,,,0.00,0.000000,,2013-04-01 07:02:00,
2013-04-01 02:10:00,60.0,60.0,-100.00,East,101,1.0,3.0,99,0.00,,,-99.99,0.000000,,2013-04-01 07:10:00,
2013-04-01 02:32:00,60.0,60.0,-100.00,East,101,1.0,3.0,99,0.00,,,-99.99,0.000000,,2013-04-01 07:32:00,
2013-04-01 02:43:00,60.0,60.0,-100.00,East,101,1.0,3.0,99,0.00,,,-99.99,0.000000,,2013-04-01 07:43:00,
2013-04-01 02:53:00,60.0,60.0,-100.00,East,101,1.0,3.0,99,0.00,,,-99.99,0.000000,,2013-04-01 07:53:00,
2013-04-01 03:03:00,60.0,60.0,-100.00,East,101,1.0,3.0,99,0.00,,,-99.99,0.000000,,2013-04-01 08:03:00,
2013-04-01 03:10:00,58.0,58.0,-100.00,North,10,2.0,5.0,100,0.00,,,0.00,0.000000,,2013-04-01 08:10:00,
2013-04-01 03:32:00,58.0,58.0,-100.00,North,10,2.0,5.0,100,0.00,,,0.00,0.000000,,2013-04-01 08:32:00,
2013-04-01 03:43:00,58.0,58.0,-100.00,North,10,2.0,5.0,100,0.00,,,0.00,0.000000,,2013-04-01 08:43:00,
2013-04-01 03:53:00,58.0,58.0,-100.00,North,10,2.0,5.0,100,0.00,,,0.00,0.000000,,2013-04-01 08:53:00,
2013-04-01 04:02:00,58.0,58.0,-100.00,North,10,2.0,5.0,100,0.00,,,0.00,0.000000,,2013-04-01 09:02:00,
2013-04-01 04:10:00,58.0,58.0,-100.00,North,2,4.0,5.0,100,0.00,,,0.00,0.000000,,2013-04-01 09:10:00,
2013-04-01 04:43:00,58.0,58.0,-100.00,North,2,4.0,5.0,100,0.00,,,0.00,0.000000,,2013-04-01 09:43:00,
2013-04-01 04:53:00,58.0,58.0,-100.00,North,2,4.0,5.0,100,0.00,,,0.00,0.000000,,2013-04-01 09:53:00,
2013-04-01 05:03:00,58.0,58.0,-100.00,North,2,4.0,5.0,100,0.00,,,0.00,0.000000,,2013-04-01 10:03:00,
2013-04-01 05:10:00,57.0,57.0,-100.00,SSE,163,3.0,5.0,100,0.00,,,0.00,0.000000,,2013-04-01 10:10:00,
2013-04-01 05:34:00,57.0,57.0,-100.00,SSE,163,3.0,5.0,100,0.00,,,0.00,0.000000,,2013-04-01 10:34:00,
2013-04-01 05:43:00,57.0,57.0,-100.00,SSE,163,3.0,5.0,100,0.00,,,0.00,0.000000,,2013-04-01 10:43:00,
2013-04-01 05:53:00,57.0,57.0,-100.00,SSE,163,3.0,5.0,100,0.00,,,0.00,0.000000,,2013-04-01 10:53:00,
2013-04-01 06:03:00,57.0,57.0,-100.00,SSE,163,3.0,5.0,100,0.00,,,0.00,0.000000,,2013-04-01 11:03:00,
2013-04-01 06:10:00,57.0,57.0,-100.00,NNE,25,4.0,4.0,100,0.00,,,0.00,0.000000,,2013-04-01 11:10:00,
2013-04-01 06:33:00,57.0,57.0,-100.00,NNE,25,4.0,4.0,100,0.00,,,0.00,0.000000,,2013-04-01 11:33:00,
2013-04-01 06:43:00,57.0,57.0,-100.00,NNE,25,4.0,4.0,100,0.00,,,0.00,0.000000,,2013-04-01 11:43:00,
2013-04-01 06:53:00,57.0,57.0,-100.00,NNE,25,4.0,4.0,100,0.00,,,0.00,0.000000,,2013-04-01 11:53:00,
2013-04-01 07:02:00,57.0,57.0,-100.00,NNE,25,4.0,4.0,100,0.00,,,0.00,0.000000,,2013-04-01 12:02:00,
2013-04-01 07:10:00,57.0,57.0,-100.00,NE,35,3.0,5.0,100,0.00,,,-99.99,0.000000,,2013-04-01 12:10:00,
2013-04-01 07:43:00,57.0,57.0,-100.00,NE,35,3.0,5.0,100,0.00,,,-99.99,0.000000,,2013-04-01 12:43:00,
2013-04-01 07:53:00,57.0,57.0,-100.00,NE,35,3.0,5.0,100,0.00,,,-99.99,0.000000,,2013-04-01 12:53:00,
2013-04-01 08:03:00,57.0,57.0,-100.00,NE,35,3.0,5.0,100,0.00,,,-99.99,0.000000,,2013-04-01 13:03:00,
2013-04-01 08:10:00,58.0,58.0,-100.00,NE,50,3.0,6.0,100,0.00,,,-99.99,61.000000,,2013-04-01 13:10:00,
2013-04-01 08:43:00,58.0,58.0,-100.00,NE,50,3.0,6.0,100,0.00,,,-99.99,61.000000,,2013-04-01 13:43:00,
2013-04-01 08:53:00,58.0,58.0,-100.00,NE,50,3.0,6.0,100,0.00,,,-99.99,61.000000,,2013-04-01 13:53:00,
2013-04-01 09:03:00,58.0,58.0,-100.00,NE,50,3.0,6.0,100,0.00,,,-99.99,61.000000,,2013-04-01 14:03:00,
2013-04-01 09:10:00,64.0,64.0,-100.00,ENE,70,5.0,7.0,100,0.00,,,0.00,270.000000,,2013-04-01 14:10:00,
2013-04-01 09:43:00,64.0,64.0,-100.00,ENE,70,5.0,7.0,100,0.00,,,0.00,270.000000,,2013-04-01 14:43:00,
2013-04-01 09:53:00,64.0,64.0,-100.00,ENE,70,5.0,7.0,100,0.00,,,0.00,270.000000,,2013-04-01 14:53:00,
2013-04-01 10:03:00,64.0,64.0,-100.00,ENE,70,5.0,7.0,100,0.00,,,0.00,270.000000,,2013-04-01 15:03:00,
2013-04-01 10:10:00,69.0,64.0,-100.00,East,82,7.0,9.0,83,0.00,,,0.00,523.000000,,2013-04-01 15:10:00,
2013-04-01 10:43:00,69.0,64.0,-100.00,East,82,7.0,9.0,83,0.00,,,0.00,523.000000,,2013-04-01 15:43:00,
2013-04-01 10:54:00,69.0,64.0,-100.00,East,82,7.0,9.0,83,0.00,,,0.00,523.000000,,2013-04-01 15:54:00,
2013-04-01 11:03:00,69.0,64.0,-100.00,East,82,7.0,9.0,83,0.00,,,0.00,523.000000,,2013-04-01 16:03:00,
2013-04-01 12:10:00,77.0,63.0,-100.00,ESE,107,7.0,12.0,62,-99.99,,,0.00,904.000000,,2013-04-01 17:10:00,
2013-04-01 12:32:00,77.0,63.0,-100.00,ESE,107,7.0,12.0,62,-99.99,,,0.00,904.000000,,2013-04-01 17:32:00,
2013-04-01 12:42:00,77.0,63.0,-100.00,ESE,107,7.0,12.0,62,-99.99,,,0.00,904.000000,,2013-04-01 17:42:00,
2013-04-01 12:53:00,77.0,63.0,-100.00,ESE,107,7.0,12.0,62,-99.99,,,0.00,904.000000,,2013-04-01 17:53:00,
2013-04-01 13:02:00,77.0,63.0,-100.00,ESE,107,7.0,12.0,62,-99.99,,,0.00,904.000000,,2013-04-01 18:02:00,
2013-04-01 13:10:00,81.0,64.0,-100.00,SSE,157,5.0,11.0,57,0.00,,,0.00,1029.000000,,2013-04-01 18:10:00,
2013-04-01 13:43:00,81.0,64.0,-100.00,SSE,157,5.0,11.0,57,0.00,,,0.00,1029.000000,,2013-04-01 18:43:00,
2013-04-01 13:53:00,81.0,64.0,-100.00,SSE,157,5.0,11.0,57,0.00,,,0.00,1029.000000,,2013-04-01 18:53:00,
2013-04-01 14:03:00,81.0,64.0,-100.00,SSE,157,5.0,11.0,57,0.00,,,0.00,1029.000000,,2013-04-01 19:03:00,
2013-04-01 14:10:00,81.0,63.0,-100.00,South,174,5.0,9.0,55,0.00,,,0.00,623.000000,,2013-04-01 19:10:00,
2013-04-01 14:43:00,81.0,63.0,-100.00,South,174,5.0,9.0,55,0.00,,,0.00,623.000000,,2013-04-01 19:43:00,
2013-04-01 14:53:00,81.0,63.0,-100.00,South,174,5.0,9.0,55,0.00,,,0.00,623.000000,,2013-04-01 19:53:00,
2013-04-01 15:02:00,81.0,63.0,-100.00,South,174,5.0,9.0,55,0.00,,,0.00,623.000000,,2013-04-01 20:02:00,
2013-04-01 15:10:00,83.0,62.0,-100.00,SSE,159,5.0,10.0,50,0.00,,,0.00,846.000000,,2013-04-01 20:10:00,
2013-04-01 15:43:00,83.0,62.0,-100.00,SSE,159,5.0,10.0,50,0.00,,,0.00,846.000000,,2013-04-01 20:43:00,
2013-04-01 15:52:00,83.0,62.0,-100.00,SSE,159,5.0,10.0,50,0.00,,,0.00,846.000000,,2013-04-01 20:52:00,
2013-04-01 16:02:00,83.0,62.0,-100.00,SSE,159,5.0,10.0,50,0.00,,,0.00,846.000000,,2013-04-01 21:02:00,
2013-04-01 16:10:00,84.0,60.0,-100.00,SE,143,5.0,9.0,44,0.00,,,0.00,908.000000,,2013-04-01 21:10:00,
2013-04-01 16:43:00,84.0,60.0,-100.00,SE,143,5.0,9.0,44,0.00,,,0.00,908.000000,,2013-04-01 21:43:00,
2013-04-01 16:53:00,84.0,60.0,-100.00,SE,143,5.0,9.0,44,0.00,,,0.00,908.000000,,2013-04-01 21:53:00,
2013-04-01 17:02:00,84.0,60.0,-100.00,SE,143,5.0,9.0,44,0.00,,,0.00,908.000000,,2013-04-01 22:02:00,
2013-04-01 17:10:00,83.0,57.0,-100.00,ESE,112,5.0,10.0,41,0.00,,,0.00,653.000000,,2013-04-01 22:10:00,
2013-04-01 17:33:00,83.0,57.0,-100.00,ESE,112,5.0,10.0,41,0.00,,,0.00,653.000000,,2013-04-01 22:33:00,
2013-04-01 17:43:00,83.0,57.0,-100.00,ESE,112,5.0,10.0,41,0.00,,,0.00,653.000000,,2013-04-01 22:43:00,
2013-04-01 17:52:00,83.0,57.0,-100.00,ESE,112,5.0,10.0,41,0.00,,,0.00,653.000000,,2013-04-01 22:52:00,
2013-04-01 18:02:00,83.0,57.0,-100.00,ESE,112,5.0,10.0,41,0.00,,,0.00,653.000000,,2013-04-01 23:02:00,
2013-04-01 18:10:00,81.0,55.0,-100.00,South,174,5.0,9.0,41,0.00,,,0.00,381.000000,,2013-04-01 23:10:00,
2013-04-01 18:43:00,81.0,55.0,-100.00,South,174,5.0,9.0,41,0.00,,,0.00,381.000000,,2013-04-01 23:43:00,
2013-04-01 18:53:00,81.0,55.0,-100.00,South,174,5.0,9.0,41,0.00,,,0.00,381.000000,,2013-04-01 23:53:00,
2013-04-01 19:03:00,81.0,55.0,-100.00,South,174,5.0,9.0,41,0.00,,,0.00,381.000000,,2013-04-02 00:03:00,
2013-04-01 19:10:00,80.0,57.0,-100.00,ESE,112,5.0,9.0,45,0.00,,,0.00,169.000000,,2013-04-02 00:10:00,
2013-04-01 19:33:00,80.0,57.0,-100.00,ESE,112,5.0,9.0,45,0.00,,,0.00,169.000000,,2013-04-02 00:33:00,
2013-04-01 19:43:00,80.0,57.0,-100.00,ESE,112,5.0,9.0,45,0.00,,,0.00,169.000000,,2013-04-02 00:43:00,
2013-04-01 19:53:00,80.0,57.0,-100.00,ESE,112,5.0,9.0,45,0.00,,,0.00,169.000000,,2013-04-02 00:53:00,
2013-04-01 20:02:00,80.0,57.0,-100.00,ESE,112,5.0,9.0,45,0.00,,,0.00,169.000000,,2013-04-02 01:02:00,
2013-04-01 20:10:00,73.0,55.0,-100.00,ESE,109,3.0,7.0,54,0.00,,,0.00,25.000000,,2013-04-02 01:10:00,
2013-04-01 20:43:00,73.0,55.0,-100.00,ESE,109,3.0,7.0,54,0.00,,,0.00,25.000000,,2013-04-02 01:43:00,
2013-04-01 20:53:00,73.0,55.0,-100.00,ESE,109,3.0,7.0,54,0.00,,,0.00,25.000000,,2013-04-02 01:53:00,
2013-04-01 21:02:00,73.0,55.0,-100.00,ESE,109,3.0,7.0,54,0.00,,,0.00,25.000000,,2013-04-02 02:02:00,
2013-04-01 21:10:00,72.0,58.0,-100.00,SE,134,6.0,10.0,61,0.00,,,0.00,0.000000,,2013-04-02 02:10:00,
2013-04-01 21:43:00,72.0,58.0,-100.00,SE,134,6.0,10.0,61,0.00,,,0.00,0.000000,,2013-04-02 02:43:00,
2013-04-01 21:53:00,72.0,58.0,-100.00,SE,134,6.0,10.0,61,0.00,,,0.00,0.000000,,2013-04-02 02:53:00,
2013-04-01 22:02:00,72.0,58.0,-100.00,SE,134,6.0,10.0,61,0.00,,,0.00,0.000000,,2013-04-02 03:02:00,
2013-04-01 22:10:00,71.0,61.0,-100.00,SE,135,5.0,8.0,70,0.00,,,0.00,0.000000,,2013-04-02 03:10:00,
2013-04-01 22:33:00,71.0,61.0,-100.00,SE,135,5.0,8.0,70,0.00,,,0.00,0.000000,,2013-04-02 03:33:00,
2013-04-01 22:43:00,71.0,61.0,-100.00,SE,135,5.0,8.0,70,0.00,,,0.00,0.000000,,2013-04-02 03:43:00,
2013-04-01 22:53:00,71.0,61.0,-100.00,SE,135,5.0,8.0,70,0.00,,,0.00,0.000000,,2013-04-02 03:53:00,
2013-04-01 23:03:00,71.0,61.0,-100.00,SE,135,5.0,8.0,70,0.00,,,0.00,0.000000,,2013-04-02 04:03:00,
2013-04-01 23:10:00,69.0,61.0,-100.00,SE,142,3.0,8.0,76,0.00,,,0.00,0.000000,,2013-04-02 04:10:00,
2013-04-01 23:43:00,69.0,61.0,-100.00,SE,142,3.0,8.0,76,0.00,,,0.00,0.000000,,2013-04-02 04:43:00,
2013-04-01 23:53:00,69.0,61.0,-100.00,SE,142,3.0,8.0,76,0.00,,,0.00,0.000000,,2013-04-02 04:53:00,